Powrót do katalogu

DELTA 1 DEB *

AktywnyLEO
NORAD 10519·DEBRIS·🇺🇸 United States

Wystrzelony Dec 15, 1977 z Cape Canaveral Space Force Station

Loading…

Następne Przeloty (najbliższe 24 godziny)

TLE

ŚwieżeSource: Space-Track

Epoka: Sep 14, 2026, 00:02 UTC

1 10519U 77118C   26257.00151994  .00000324  00000-0  67042-4 0  9993
2 10519  29.0565 244.0798 0811314 171.5633 189.9511 13.30756784348129

Śledź DELTA 1 DEB * w czasie rzeczywistym z AllMySat

Download on the App Store